[[{"header":{"parameterUnit":"m.s-1","parameterCategory":2,"la1":30.2991,"la2":30.254,"lo1":-89.0895,"lo2":-89.0444,"dy":0.0017,"dx":0.0017,"nx":28,"ny":28,"refTime":"2025-09-12T09:00:00:Z","depth":"0","parameterNumber":2,"parameterNumberName":"U-component_of_CURRENTS"},"data":[0,0,0,0,0,0,0,0,0,0,0,0,0,0,0,0,0,0,0,0,0,0,0,0,0,0,0,0,0,0,0,0,0,0,0,0,0,0,0,0,0,0,0,0,0,0,0,0,0,0,0,0,0,0,0,0,0,0,0.3366,0.3365,0,0.3272,0.3271,0.327,0.3206,0.3206,0.3206,0.3205,0.3218,0.3219,0.322,0,0,0,0,0,0,0,0,0,0,0,0,0,0.3518,0.3515,0.3366,0.3365,0.3364,0.3272,0.3271,0.327,0.3207,0.3206,0.3205,0.3205,0.3218,0.3219,0.322,0,0,0,0,0,0,0,0,0,0,0,0,0,0.3441,0.3514,0.3367,0.3321,0.3316,0.3272,0.3271,0.3269,0.3207,0.3206,0.3205,0.3205,0.3218,0.3219,0.322,0.3241,0,0,0.3223,0.3224,0,0,0,0,0,0,0,0,0.3445,0.3435,0.3329,0.3324,0.3318,0.325,0.3329,0.3265,0.3207,0.3249,0.3205,0.3204,0.3239,0.3238,0.3221,0.3242,0.3242,0.3224,0.3224,0.3225,0.3225,0,0,0,0,0,0,0,0.3451,0.3439,0.3329,0.3328,0.3321,0.3314,0.3303,0.3316,0.3251,0.3245,0.324,0.3229,0.3237,0.322,0.3221,0.3243,0.3224,0.3225,0.3225,0.3226,0.3295,0.3296,0,0,0,0,0,0,0.3461,0.3444,0.3332,0.3326,0.3381,0.3312,0.3299,0.3273,0.3249,0.3243,0.323,0.3227,0.3218,0.322,0.3222,0.3305,0.3225,0.3226,0.3227,0.3294,0.3295,0.3296,0,0,0,0,0,0,0.3464,0.3451,0.3336,0.3384,0.3369,0.331,0.3282,0.3271,0.3252,0.3236,0.3232,0.322,0.3218,0.322,0.3238,0.3303,0.3226,0.3227,0.3292,0.3294,0.3296,0.3435,0,0,0,0,0,0,0.3468,0.3452,0.3448,0.3384,0.3366,0.3348,0.3282,0.327,0.3246,0.3241,0.3227,0.3227,0.3217,0.3236,0.3239,0.3304,0.3228,0.3291,0.3293,0.3295,0.3429,0.3442,0.3452,0,0,0,0,0,0.3474,0.3504,0.3448,0.3435,0.3358,0.3351,0.3343,0.3298,0.3247,0.327,0.3235,0.3227,0.3251,0.3238,0.3241,0.3308,0.329,0.3292,0.3295,0.3424,0.3439,0.3452,0,0,0,0,0,0,0.3629,0.3497,0.3436,0.3437,0.3401,0.3341,0.3362,0.3302,0.3287,0.3282,0.3241,0.3241,0.328,0.3263,0.3248,0.3328,0.3271,0.3274,0.3368,0.3382,0.3393,0.3482,0.3229,0,0,0,0,0,0.364,0.3585,0.3503,0.3507,0.3492,0.3414,0.3402,0.3366,0.3336,0.3325,0.3299,0.3283,0.3292,0.3311,0.3311,0.3361,0.3402,0.3402,0.3414,0.3424,0.3495,0.3566,0.3592,0.3304,0.3304,0.3304,0,0,0.3699,0.3622,0.3595,0.3528,0.3492,0.3514,0.3408,0.3411,0.3437,0.3335,0.337,0.3321,0.3307,0.3359,0.3377,0.3359,0.3528,0.3427,0.3436,0.3504,0.3572,0.36,0.3626,0.3306,0.3306,0.3306,0,0,0.3807,0.3727,0.3718,0.3699,0.3644,0.3601,0.3601,0.3536,0.3522,0.3527,0.3463,0.3459,0.3454,0.3473,0.3479,0.3556,0.3574,0.3535,0.3691,0.3757,0.3783,0.3806,0.3913,0.3945,0.3555,0.3556,0.3556,0,0.388,0.3848,0.3737,0.3759,0.3757,0.3647,0.3691,0.3682,0.3629,0.3632,0.3569,0.3556,0.353,0.3618,0.3641,0.3595,0.364,0.3642,0.3779,0.3802,0.3824,0.3928,0.3961,0.3563,0.3562,0.3561,0.3561,0,0.397,0.3971,0.3994,0.3944,0.3948,0.3972,0.3932,0.3933,0.3867,0.3835,0.3863,0.3809,0.3811,0.3789,0.3748,0.3883,0.3868,0.3775,0.3758,0.3863,0.3963,0.3996,0.3573,0.357,0.3568,0.3567,0,0,0.402,0.4039,0.4042,0.4046,0.4035,0.4032,0.4113,0.412,0.4144,0.4111,0.4156,0.416,0.4096,0.4101,0.4034,0.4098,0.4272,0.4023,0.4023,0.4159,0.4468,0.4484,0.452,0.4196,0.4201,0.4206,0.4485,0,0.4101,0.4178,0.4167,0.4247,0.4268,0.4239,0.4306,0.4315,0.4291,0.4316,0.4296,0.4303,0.4228,0.4206,0.4277,0.4236,0.4362,0.421,0.4323,0.433,0.4354,0.456,0.437,0.4605,0.4516,0.4522,0.4525,0,0.4135,0.4177,0.4276,0.4332,0.4342,0.4387,0.442,0.4469,0.452,0.4513,0.4557,0.451,0.4609,0.4492,0.4636,0.4536,0.4569,0.4555,0.4562,0.4567,0.4407,0.4478,0.4667,0.4413,0.4575,0.4571,0.4568,0,0.4111,0.4224,0.4289,0.4314,0.4391,0.4429,0.4458,0.451,0.4544,0.4632,0.4648,0.4751,0.4754,0.4839,0.4828,0.4745,0.4977,0.4835,0.4922,0.4922,0.4788,0.4768,0.4777,0.5027,0.5026,0.5026,0.5025,0,0.4127,0.4172,0.4279,0.4303,0.4369,0.4424,0.4488,0.4536,0.4624,0.466,0.4732,0.4779,0.4834,0.493,0.4953,0.5074,0.5098,0.5055,0.5028,0.483,0.4811,0.46,0.4521,0.5036,0.5034,0.5032,0.503,0,0.4055,0.4141,0.4198,0.431,0.4343,0.4368,0.4472,0.4506,0.4615,0.4674,0.4708,0.4835,0.4978,0.5072,0.5197,0.521,0.5173,0.5356,0.5154,0.5101,0.4926,0.4864,0.487,0.4733,0.5532,0.5535,0.5537,0,0.4027,0.4053,0.416,0.4184,0.4226,0.4296,0.4329,0.4464,0.4505,0.4678,0.469,0.4885,0.501,0.528,0.5357,0.5538,0.5272,0.5433,0.5255,0.5001,0.4909,0.4699,0.4565,0.5133,0.5132,0.5131,0.513,0,0.3957,0.3983,0.4028,0.41,0.4136,0.4181,0.4249,0.4297,0.4437,0.4551,0.4698,0.4844,0.5116,0.5225,0.5468,0.5508,0.5147,0.542,0.5179,0.469,0.4441,0.4261,0.4886,0.512,0.5121,0.5122,0.5122,0.5123,0.3887,0.3885,0.3957,0.3997,0.4046,0.4061,0.4062,0.4163,0.4278,0.4395,0.4601,0.4754,0.4938,0.5279,0.5314,0.5154,0.5169,0.4947,0.4931,0.4769,0.4525,0.5193,0.5359,0.5361,0.5363,0.5364,0.5366,0,0.3812,0.3825,0.3858,0.3915,0.3918,0.3972,0.4001,0.3984,0.4076,0.4251,0.4421,0.4547,0.4681,0.4765,0.4785,0.4639,0.4413,0.4455,0.4041,0.3962,0.4569,0.4427,0.4365,0.4365,0.4365,0.4365,0.4366,0.4366,0.3782,0.3778,0.3787,0.3788,0.3809,0.3755,0.3733,0.3735,0.3827,0.3902,0.3963,0.4087,0.4235,0.4325,0.4148,0.4052,0.3672,0.3601,0.3562,0.3874,0.3911,0.3946,0.3785,0.359,0.3589,0.2722,0.2715,0.271]},{"header":{"parameterUnit":"m.s-1","parameterCategory":2,"la1":30.2991,"la2":30.254,"lo1":-89.0895,"lo2":-89.0444,"dy":0.0017,"dx":0.0017,"nx":28,"ny":28,"refTime":"2025-09-12T09:00:00:Z","depth":"0","parameterNumber":3,"parameterNumberName":"V-component_of_CURRENTS"},"data":[0,0,0,0,0,0,0,0,0,0,0,0,0,0,0,0,0,0,0,0,0,0,0,0,0,0,0,0,0,0,0,0,0,0,0,0,0,0,0,0,0,0,0,0,0,0,0,0,0,0,0,0,0,0,0,0,0,0,-0.0186,-0.0186,0,-0.0197,-0.0198,-0.0198,-0.024,-0.024,-0.0241,-0.0242,-0.0351,-0.0353,-0.0355,0,0,0,0,0,0,0,0,0,0,0,0,0,-0.0291,-0.0288,-0.0186,-0.0186,-0.0186,-0.0197,-0.0198,-0.0198,-0.024,-0.024,-0.0241,-0.0242,-0.035,-0.0353,-0.0355,0,0,0,0,0,0,0,0,0,0,0,0,0,-0.027,-0.0287,-0.0186,-0.0206,-0.0207,-0.0197,-0.0198,-0.0198,-0.0239,-0.024,-0.0241,-0.0242,-0.0349,-0.0352,-0.0356,-0.0357,0,0,-0.0366,-0.0368,0,0,0,0,0,0,0,0,-0.0271,-0.0267,-0.0203,-0.0204,-0.0206,-0.0215,-0.0274,-0.0255,-0.0239,-0.0231,-0.0242,-0.0243,-0.0312,-0.0318,-0.0321,-0.0362,-0.0367,-0.0367,-0.0369,-0.037,-0.0371,0,0,0,0,0,0,0,-0.0273,-0.0267,-0.0194,-0.0203,-0.0204,-0.0244,-0.0242,-0.0271,-0.027,-0.0231,-0.0234,-0.0229,-0.0314,-0.0318,-0.0324,-0.0369,-0.0366,-0.037,-0.0372,-0.0373,-0.0438,-0.0438,0,0,0,0,0,0,-0.0258,-0.0268,-0.0193,-0.0194,-0.0238,-0.0241,-0.0239,-0.0214,-0.0267,-0.0275,-0.0229,-0.0231,-0.0311,-0.032,-0.0328,-0.0362,-0.037,-0.0373,-0.0375,-0.0438,-0.0438,-0.0437,0,0,0,0,0,0,-0.026,-0.0251,-0.0193,-0.023,-0.0225,-0.0237,-0.021,-0.0214,-0.0219,-0.0263,-0.0274,-0.023,-0.0313,-0.0324,-0.035,-0.0365,-0.0375,-0.0378,-0.0439,-0.0438,-0.0438,-0.041,0,0,0,0,0,0,-0.0263,-0.0251,-0.0234,-0.0228,-0.0222,-0.0192,-0.0208,-0.0213,-0.0213,-0.0217,-0.0268,-0.0279,-0.0314,-0.0344,-0.0353,-0.037,-0.0381,-0.0439,-0.0438,-0.0438,-0.0412,-0.0409,-0.0407,0,0,0,0,0,-0.0266,-0.0253,-0.0232,-0.0224,-0.0195,-0.0192,-0.0193,-0.0208,-0.0212,-0.0217,-0.0242,-0.0278,-0.0347,-0.0346,-0.0357,-0.0376,-0.0439,-0.0439,-0.0438,-0.0413,-0.041,-0.0407,0,0,0,0,0,0,-0.0337,-0.0255,-0.0233,-0.0207,-0.0195,-0.0198,-0.0207,-0.0202,-0.0222,-0.023,-0.0269,-0.0282,-0.0312,-0.0338,-0.0336,-0.039,-0.0401,-0.0402,-0.0378,-0.0376,-0.0373,-0.0386,-0.0384,0,0,0,0,0,-0.0326,-0.0269,-0.023,-0.0217,-0.0204,-0.0197,-0.0198,-0.0198,-0.0211,-0.0221,-0.0249,-0.0283,-0.0315,-0.034,-0.0369,-0.0396,-0.0411,-0.0415,-0.0412,-0.041,-0.0426,-0.0447,-0.0449,-0.0435,-0.0435,-0.0435,0,0,-0.0357,-0.0302,-0.0278,-0.0223,-0.0217,-0.0214,-0.0203,-0.0201,-0.0209,-0.023,-0.0258,-0.0273,-0.0317,-0.0348,-0.0365,-0.0376,-0.0415,-0.0409,-0.0407,-0.0425,-0.0447,-0.0448,-0.045,-0.0434,-0.0435,-0.0435,0,0,-0.0406,-0.0334,-0.0311,-0.0285,-0.0249,-0.0231,-0.0225,-0.021,-0.0214,-0.022,-0.0244,-0.0261,-0.0305,-0.0342,-0.0367,-0.0366,-0.0395,-0.0375,-0.0384,-0.0404,-0.0406,-0.0407,-0.0399,-0.0401,-0.038,-0.038,-0.038,0,-0.0456,-0.0397,-0.0319,-0.0305,-0.0287,-0.0238,-0.0242,-0.0236,-0.0236,-0.0237,-0.023,-0.0277,-0.0308,-0.0359,-0.0359,-0.0365,-0.0368,-0.0393,-0.0402,-0.0404,-0.0406,-0.0398,-0.04,-0.0379,-0.0379,-0.0379,-0.0379,0,-0.0482,-0.0442,-0.0436,-0.0371,-0.0352,-0.0339,-0.0303,-0.0289,-0.0265,-0.0259,-0.0275,-0.0295,-0.0327,-0.0334,-0.0351,-0.0387,-0.0379,-0.0389,-0.041,-0.0406,-0.0397,-0.0399,-0.0377,-0.0377,-0.0378,-0.0378,0,0,-0.056,-0.0468,-0.0466,-0.0427,-0.0369,-0.0348,-0.0352,-0.0326,-0.0309,-0.031,-0.0304,-0.0353,-0.0341,-0.0367,-0.0382,-0.0401,-0.0405,-0.0403,-0.0404,-0.0397,-0.0427,-0.0397,-0.0397,-0.0415,-0.0416,-0.0417,-0.0403,0,-0.0603,-0.0571,-0.052,-0.0495,-0.0458,-0.0405,-0.0401,-0.0374,-0.034,-0.0316,-0.0332,-0.0332,-0.0361,-0.0354,-0.0385,-0.0387,-0.0415,-0.0407,-0.0432,-0.0432,-0.0409,-0.0401,-0.0327,-0.0306,-0.0405,-0.0406,-0.0406,0,-0.0616,-0.058,-0.0563,-0.0484,-0.0469,-0.0458,-0.039,-0.0382,-0.035,-0.0328,-0.0336,-0.0326,-0.0354,-0.0363,-0.0409,-0.0399,-0.0425,-0.0433,-0.0433,-0.0425,-0.0409,-0.0333,-0.0308,-0.0496,-0.041,-0.041,-0.041,0,-0.062,-0.0589,-0.0559,-0.0536,-0.0468,-0.0456,-0.0427,-0.0387,-0.0347,-0.0327,-0.0283,-0.0326,-0.0306,-0.0362,-0.0376,-0.0393,-0.0401,-0.0426,-0.0435,-0.0431,-0.0386,-0.0377,-0.0553,-0.0486,-0.0486,-0.0486,-0.0486,0,-0.0612,-0.0579,-0.0554,-0.0519,-0.0468,-0.0448,-0.0388,-0.0362,-0.0322,-0.0247,-0.0286,-0.0228,-0.0304,-0.0303,-0.0356,-0.0382,-0.0393,-0.0439,-0.0434,-0.037,-0.036,-0.0537,-0.066,-0.0485,-0.0485,-0.0485,-0.0485,0,-0.0562,-0.0562,-0.0494,-0.0457,-0.0443,-0.0394,-0.0327,-0.0276,-0.0267,-0.0166,-0.0154,-0.0146,-0.0136,-0.02,-0.0253,-0.033,-0.0459,-0.0391,-0.0293,-0.0278,-0.0479,-0.0601,-0.0776,-0.0861,-0.0406,-0.0405,-0.0405,0,-0.0509,-0.0482,-0.0425,-0.0377,-0.0346,-0.0292,-0.0239,-0.0229,-0.0164,-0.0089,-0.0023,-0.0008,0.0084,0.0007,-0.0122,-0.0209,-0.0413,-0.0268,-0.0314,-0.049,-0.0622,-0.0723,-0.0789,-0.0226,-0.0224,-0.0223,-0.0221,0,-0.0396,-0.0388,-0.0334,-0.0251,-0.0191,-0.0118,-0.0053,0.0003,0.0042,0.014,0.0281,0.0355,0.0281,0.0274,0.0094,-0.0027,-0.0403,-0.0239,-0.0453,-0.0534,-0.0623,-0.0698,-0.0228,-0.0207,-0.0208,-0.0209,-0.021,-0.0211,-0.029,-0.0233,-0.0181,-0.0096,-0.0028,0.0068,0.0155,0.0248,0.0388,0.0595,0.059,0.0832,0.0667,0.0466,0.0202,-0.024,-0.0302,-0.036,-0.0497,-0.0586,-0.0676,-0.0168,-0.0129,-0.013,-0.0131,-0.0132,-0.0132,0,-0.0148,-0.0113,-0.0028,0.0072,0.0168,0.0169,0.0296,0.0413,0.0631,0.0911,0.1104,0.1296,0.1011,0.0619,0.0028,-0.0375,-0.058,-0.0643,-0.0791,-0.0852,-0.0407,-0.0409,-0.0389,-0.0389,-0.0389,-0.0389,-0.0389,-0.0388,-0.0067,0.0031,0.0051,0.0223,0.0295,0.0438,0.0525,0.073,0.0964,0.1407,0.1714,0.1898,0.1629,0.0378,-0.0503,-0.0735,-0.1091,-0.1138,-0.1353,-0.1073,-0.1058,-0.1044,-0.1077,-0.1198,-0.1199,-0.171,-0.1716,-0.172]}],[{"header":{"parameterUnit":"m.s-1","parameterCategory":2,"la1":30.2991,"la2":30.254,"lo1":-89.0895,"lo2":-89.0444,"dy":0.0017,"dx":0.0017,"nx":28,"ny":28,"refTime":"2025-09-12T09:00:00:Z","depth":"2","parameterNumber":2,"parameterNumberName":"U-component_of_CURRENTS"},"data":[0,0,0,0,0,0,0,0,0,0,0,0,0,0,0,0,0,0,0,0,0,0,0,0,0,0,0,0,0,0,0,0,0,0,0,0,0,0,0,0,0,0,0,0,0,0,0,0,0,0,0,0,0,0,0,0,0,0,0.2505,0.2505,0,0.2517,0.2517,0.2517,0.2544,0.2544,0.2545,0.2545,0.26,0.2601,0.2602,0,0,0,0,0,0,0,0,0,0,0,0,0,0.2548,0.2547,0.2505,0.2505,0.2505,0.2517,0.2517,0.2517,0.2543,0.2544,0.2545,0.2545,0.2599,0.2601,0.2602,0,0,0,0,0,0,0,0,0,0,0,0,0,0.2542,0.2547,0.2505,0.2519,0.2521,0.2517,0.2517,0.2517,0.2543,0.2544,0.2545,0.2545,0.2599,0.2601,0.2602,0.2597,0,0,0.2607,0.2607,0,0,0,0,0,0,0,0,0.2543,0.2541,0.2517,0.2518,0.252,0.2529,0.2552,0.2546,0.2543,0.2536,0.2545,0.2546,0.2579,0.2582,0.2583,0.26,0.2602,0.2607,0.2608,0.2608,0.2609,0,0,0,0,0,0,0,0.2543,0.2541,0.2511,0.2517,0.2519,0.2539,0.2539,0.2551,0.2555,0.2536,0.2538,0.2538,0.258,0.2582,0.2585,0.2603,0.2607,0.2608,0.2609,0.261,0.2669,0.2669,0,0,0,0,0,0,0.2537,0.2541,0.251,0.2511,0.2532,0.2538,0.2538,0.2526,0.2554,0.2558,0.2537,0.2539,0.2579,0.2583,0.2587,0.2652,0.2608,0.261,0.2611,0.2668,0.2669,0.267,0,0,0,0,0,0,0.2537,0.2533,0.251,0.2526,0.2525,0.2536,0.2523,0.2526,0.2537,0.2554,0.2559,0.2547,0.258,0.2585,0.2619,0.2652,0.2611,0.2612,0.2667,0.2668,0.2669,0.2739,0,0,0,0,0,0,0.2538,0.2533,0.2543,0.2525,0.2523,0.2527,0.2522,0.2525,0.2535,0.2538,0.2564,0.2569,0.258,0.2617,0.2621,0.2654,0.2613,0.2667,0.2668,0.2669,0.2736,0.2742,0.2748,0,0,0,0,0,0.2539,0.2551,0.2543,0.2541,0.2529,0.2528,0.253,0.2541,0.2535,0.2551,0.2568,0.2569,0.2627,0.2619,0.2623,0.2657,0.2666,0.2667,0.2669,0.2733,0.2741,0.2747,0,0,0,0,0,0,0.2559,0.2554,0.2545,0.2549,0.2545,0.2533,0.2555,0.2543,0.2565,0.2578,0.258,0.2588,0.2631,0.2626,0.2616,0.2674,0.2645,0.2647,0.2692,0.27,0.2705,0.2791,0.2614,0,0,0,0,0,0.2568,0.2593,0.2566,0.2575,0.2572,0.256,0.2565,0.2567,0.2574,0.2584,0.2598,0.2615,0.2637,0.2654,0.2673,0.2703,0.2738,0.2724,0.273,0.2735,0.2806,0.2859,0.2878,0.2674,0.2674,0.2674,0,0,0.2583,0.2581,0.2597,0.2585,0.2584,0.2587,0.2566,0.2582,0.2597,0.2587,0.2629,0.264,0.2648,0.2692,0.271,0.2695,0.2804,0.2737,0.2742,0.2811,0.2863,0.2884,0.2902,0.2675,0.2675,0.2675,0,0,0.2611,0.2614,0.2635,0.2633,0.2634,0.263,0.2632,0.2625,0.2641,0.2673,0.267,0.2714,0.2731,0.276,0.277,0.2818,0.2833,0.2801,0.2908,0.2957,0.2976,0.2993,0.304,0.3061,0.2804,0.2804,0.2804,0,0.2621,0.2624,0.2642,0.2646,0.2644,0.2645,0.2644,0.2667,0.2678,0.2714,0.2704,0.2778,0.2777,0.2846,0.2876,0.2839,0.2872,0.2879,0.297,0.2987,0.3004,0.3049,0.3071,0.2808,0.2807,0.2807,0.2807,0,0.2621,0.265,0.266,0.2669,0.2685,0.2685,0.2702,0.2756,0.2774,0.2791,0.2874,0.289,0.2941,0.2934,0.2935,0.304,0.3026,0.297,0.2961,0.3029,0.307,0.3093,0.2813,0.2811,0.281,0.281,0,0,0.2575,0.2641,0.2653,0.2675,0.2685,0.2704,0.2772,0.2822,0.2883,0.2934,0.3014,0.3073,0.3097,0.3114,0.3101,0.3173,0.3297,0.3147,0.3147,0.3214,0.3427,0.3339,0.3354,0.3257,0.3262,0.3266,0.3402,0,0.2553,0.2607,0.2621,0.2673,0.27,0.2741,0.2806,0.2883,0.2935,0.3028,0.3097,0.3166,0.3148,0.3191,0.3256,0.3292,0.3364,0.3268,0.3338,0.3341,0.3271,0.338,0.3116,0.3209,0.3423,0.3427,0.3429,0,0.253,0.2581,0.2619,0.2723,0.2729,0.2763,0.2888,0.2936,0.3081,0.3145,0.325,0.3277,0.3415,0.3369,0.3515,0.3456,0.348,0.3505,0.3507,0.3439,0.3297,0.3178,0.3241,0.3466,0.3463,0.346,0.3458,0,0.2509,0.2589,0.2627,0.2639,0.2734,0.2793,0.2865,0.2996,0.3072,0.3238,0.3344,0.3437,0.3532,0.3593,0.3651,0.3598,0.3807,0.3697,0.3646,0.3638,0.344,0.3407,0.3825,0.3824,0.3824,0.3824,0.3823,0,0.2463,0.2531,0.2642,0.2644,0.2768,0.2819,0.2919,0.3052,0.3186,0.3283,0.3406,0.351,0.3607,0.3707,0.3721,0.3778,0.3848,0.3735,0.3692,0.345,0.3418,0.3657,0.3635,0.3829,0.3828,0.3827,0.3826,0,0.246,0.2511,0.2589,0.2691,0.2753,0.2858,0.3002,0.3055,0.3235,0.3379,0.3458,0.3629,0.3747,0.3822,0.392,0.3872,0.3919,0.3911,0.3631,0.3555,0.3696,0.3676,0.3867,0.3866,0.3864,0.3863,0.3863,0,0.2464,0.2469,0.262,0.2676,0.2726,0.2868,0.2937,0.3107,0.3157,0.342,0.3483,0.3678,0.3725,0.3875,0.3861,0.3888,0.3932,0.365,0.3495,0.3775,0.3714,0.3695,0.3678,0.3249,0.3243,0.3238,0.3234,0,0.2421,0.2462,0.2521,0.2661,0.2748,0.2835,0.2953,0.3005,0.3158,0.3298,0.3431,0.3499,0.3666,0.3556,0.3636,0.3605,0.3618,0.3552,0.395,0.327,0.32,0.3136,0.3138,0.3192,0.3196,0.32,0.3202,0.3204,0.2427,0.248,0.253,0.2648,0.273,0.2757,0.2762,0.2824,0.2906,0.3008,0.3175,0.3202,0.3288,0.3233,0.3186,0.3198,0.3411,0.3257,0.3268,0.3285,0.3181,0.3111,0.3069,0.3072,0.3075,0.3078,0.308,0,0.2437,0.2489,0.251,0.2644,0.2598,0.2724,0.2716,0.2641,0.2631,0.2738,0.2794,0.2613,0.2594,0.2713,0.267,0.2706,0.2652,0.2599,0.2493,0.2541,0.2581,0.2435,0.2128,0.2125,0.2121,0.2118,0,0,0.2475,0.2509,0.2468,0.2434,0.2508,0.2424,0.2368,0.2331,0.2316,0.2215,0.2213,0.2391,0.2586,0.2267,0.2289,0.2192,0.2325,0.2118,0.2894,0.2813,0.2847,0.2994,0.2828,0,0,0,0,0]},{"header":{"parameterUnit":"m.s-1","parameterCategory":2,"la1":30.2991,"la2":30.254,"lo1":-89.0895,"lo2":-89.0444,"dy":0.0017,"dx":0.0017,"nx":28,"ny":28,"refTime":"2025-09-12T09:00:00:Z","depth":"2","parameterNumber":3,"parameterNumberName":"V-component_of_CURRENTS"},"data":[0,0,0,0,0,0,0,0,0,0,0,0,0,0,0,0,0,0,0,0,0,0,0,0,0,0,0,0,0,0,0,0,0,0,0,0,0,0,0,0,0,0,0,0,0,0,0,0,0,0,0,0,0,0,0,0,0,0,0.0143,0.0142,0,0.0103,0.0103,0.0102,0.0062,0.0062,0.0061,0.0061,-0.0021,-0.0023,-0.0024,0,0,0,0,0,0,0,0,0,0,0,0,0,0.0103,0.0104,0.0143,0.0142,0.0142,0.0104,0.0103,0.0102,0.0062,0.0062,0.0061,0.0061,-0.002,-0.0022,-0.0024,0,0,0,0,0,0,0,0,0,0,0,0,0,0.0096,0.0105,0.0143,0.0119,0.0116,0.0104,0.0103,0.0102,0.0062,0.0062,0.0061,0.0061,-0.0019,-0.0022,-0.0025,-0.0031,0,0,-0.0033,-0.0034,0,0,0,0,0,0,0,0,0.0097,0.0097,0.0123,0.012,0.0118,0.0089,0.0059,0.0056,0.0062,0.0081,0.0061,0.006,0.0014,0.0008,-0.0,-0.0035,-0.0038,-0.0033,-0.0035,-0.0036,-0.0037,0,0,0,0,0,0,0,0.0097,0.0098,0.0125,0.0122,0.0119,0.0083,0.0082,0.0058,0.0048,0.0079,0.0077,0.0076,0.0012,0.0003,-0.0002,-0.0039,-0.0033,-0.0036,-0.0037,-0.0039,-0.0094,-0.0094,0,0,0,0,0,0,0.0111,0.01,0.0126,0.0124,0.0108,0.0085,0.0083,0.0097,0.005,0.0043,0.0076,0.0074,0.0008,0.0001,-0.0006,-0.0014,-0.0036,-0.0039,-0.004,-0.0094,-0.0094,-0.0094,0,0,0,0,0,0,0.0111,0.0115,0.0128,0.0111,0.0111,0.0087,0.0102,0.0097,0.0087,0.0048,0.004,0.0072,0.0007,-0.0002,-0.0024,-0.0018,-0.004,-0.0043,-0.0094,-0.0094,-0.0094,-0.0033,0,0,0,0,0,0,0.011,0.0115,0.0125,0.0113,0.0112,0.0124,0.0102,0.0096,0.0088,0.0085,0.0042,0.0034,0.0006,-0.002,-0.0027,-0.0022,-0.0045,-0.0094,-0.0094,-0.0094,-0.0035,-0.0031,-0.0027,0,0,0,0,0,0.0109,0.0124,0.0126,0.0128,0.0129,0.0125,0.0121,0.0099,0.0089,0.0088,0.006,0.0035,-0.0023,-0.0021,-0.003,-0.0026,-0.0095,-0.0094,-0.0094,-0.0037,-0.0032,-0.0027,0,0,0,0,0,0,0.0113,0.0122,0.0123,0.0141,0.0137,0.0119,0.0115,0.0104,0.0082,0.0077,0.0039,0.0029,0.0011,-0.0015,-0.0013,-0.0042,-0.0063,-0.0065,-0.0017,-0.0013,-0.0008,0.0005,-0.0047,0,0,0,0,0,0.0121,0.0132,0.0135,0.0148,0.015,0.0135,0.0129,0.0119,0.01,0.009,0.0061,0.003,0.0007,-0.0008,-0.0035,-0.0049,-0.0071,-0.0053,-0.0049,-0.0045,-0.0041,-0.0066,-0.0064,-0.0092,-0.0092,-0.0092,0,0,0.0119,0.0131,0.0132,0.0148,0.0142,0.0161,0.0129,0.0127,0.0139,0.0085,0.0082,0.0044,0.0006,-0.0009,-0.002,-0.0031,-0.0048,-0.0045,-0.0041,-0.0039,-0.0066,-0.0063,-0.006,-0.0092,-0.0092,-0.0092,0,0,0.014,0.0141,0.0166,0.0171,0.0177,0.017,0.0174,0.0163,0.0152,0.0142,0.011,0.0079,0.0039,0.0018,0.0001,0.0013,-0.0024,-0.0001,0.0031,0.0006,0.0009,0.001,-0.0008,-0.0008,0.0001,0.0001,0.0001,0,0.0154,0.0192,0.0168,0.0203,0.0222,0.0183,0.0224,0.0203,0.0183,0.0185,0.0147,0.0098,0.0054,0.0053,0.0042,0.0023,0.0003,0.0017,0.0013,0.0014,0.0015,-0.0004,-0.0005,0.0004,0.0004,0.0004,0.0003,0,0.0204,0.0234,0.0247,0.0287,0.0291,0.0316,0.0301,0.0293,0.0268,0.025,0.023,0.0164,0.0139,0.0112,0.0071,0.0062,0.0044,0.0023,0.0004,0.0022,0.0,-0.0002,0.0009,0.0007,0.0007,0.0006,0,0,0.0256,0.0288,0.029,0.0337,0.0349,0.0365,0.0374,0.0389,0.0417,0.0344,0.0374,0.0284,0.0238,0.0215,0.0163,0.012,0.0091,0.0068,0.0065,0.0058,0.004,0.0016,0.0011,0.0067,0.0067,0.0067,0.0025,0,0.0324,0.0403,0.0397,0.0472,0.0522,0.0499,0.0525,0.0516,0.0492,0.0497,0.0406,0.0396,0.0283,0.0273,0.0209,0.0134,0.0087,0.0105,0.0017,0.0015,-0.0002,0.0008,0.0011,-0.0027,0.0023,0.0022,0.0022,0,0.0391,0.0443,0.0528,0.0603,0.0624,0.0651,0.07,0.072,0.0695,0.0671,0.0617,0.0551,0.0474,0.0378,0.0235,0.0251,0.0143,0.0067,0.0064,0.0019,-0.0013,-0.004,-0.0034,0.0018,0.0018,0.0019,0.0019,0,0.0458,0.0539,0.0616,0.064,0.0705,0.0738,0.0765,0.0767,0.0803,0.0778,0.0793,0.0687,0.0651,0.0494,0.0301,0.0272,0.0151,0.0104,-0.0017,-0.0019,-0.0046,-0.005,0.0002,0.0002,0.0002,0.0002,0.0002,0,0.055,0.0606,0.065,0.0702,0.0799,0.0813,0.0909,0.091,0.0937,0.1006,0.0883,0.0907,0.0673,0.0567,0.0369,0.0176,0.0203,-0.0008,-0.0031,-0.0025,-0.0026,-0.0013,-0.0015,0.0,0.0001,0.0001,0.0001,0,0.0601,0.0628,0.0733,0.0815,0.0835,0.09,0.0988,0.1062,0.1067,0.1154,0.115,0.1069,0.0931,0.0698,0.0472,0.0289,0.0097,0.0019,0.0043,0.0021,-0.0075,-0.0073,-0.0113,-0.0114,-0.0115,-0.0116,-0.0117,0,0.0635,0.0697,0.0805,0.0863,0.0898,0.0988,0.1063,0.1105,0.1192,0.1265,0.1322,0.1221,0.1162,0.0819,0.0477,0.0152,0.0106,-0.0042,-0.0111,-0.0068,-0.0087,-0.0083,-0.008,-0.012,-0.012,-0.0121,-0.0121,0,0.0714,0.0747,0.0823,0.0947,0.103,0.1148,0.1256,0.1345,0.1434,0.1492,0.1577,0.1536,0.1217,0.0876,0.043,0.0211,0.0005,-0.0063,-0.0011,-0.0091,-0.0078,-0.0095,-0.0091,-0.0126,-0.0126,-0.0125,-0.0125,-0.0125,0.0747,0.081,0.0911,0.1035,0.1136,0.1296,0.1415,0.1543,0.1679,0.1777,0.1743,0.1653,0.1305,0.0693,0.0341,-0.0036,-0.0028,-0.0173,-0.017,-0.0166,-0.016,-0.0149,-0.0209,-0.0209,-0.0209,-0.0209,-0.0209,0,0.0788,0.0862,0.0992,0.1138,0.1292,0.1333,0.1537,0.1657,0.1828,0.1854,0.1864,0.1494,0.1115,0.0717,0.0143,-0.0179,-0.0203,-0.0269,-0.0241,-0.0234,-0.0229,-0.0225,-0.0292,-0.0293,-0.0294,-0.0294,0,0,0.0798,0.0914,0.1004,0.125,0.1365,0.1566,0.17,0.1826,0.1884,0.1887,0.1786,0.1645,0.1186,0.076,0.0323,0.0007,-0.0035,-0.0048,0.0049,0.0138,0.0148,-0.0149,-0.0132,0,0,0,0,0]}],[{"header":{"parameterUnit":"m.s-1","parameterCategory":2,"la1":30.2991,"la2":30.254,"lo1":-89.0895,"lo2":-89.0444,"dy":0.0017,"dx":0.0017,"nx":28,"ny":28,"refTime":"2025-09-12T09:00:00:Z","depth":"4","parameterNumber":2,"parameterNumberName":"U-component_of_CURRENTS"},"data":[0,0,0,0,0,0,0,0,0,0,0,0,0,0,0,0,0,0,0,0,0,0,0,0,0,0,0,0,0,0,0,0,0,0,0,0,0,0,0,0,0,0,0,0,0,0,0,0,0,0,0,0,0,0,0,0,0,0,0.1453,0.1454,0,0.1531,0.1532,0.1533,0.1592,0.1593,0.1593,0.1594,0.1637,0.1637,0.1638,0,0,0,0,0,0,0,0,0,0,0,0,0,0.1374,0.1375,0.1453,0.1454,0.1455,0.1531,0.1532,0.1533,0.1592,0.1593,0.1594,0.1594,0.1637,0.1637,0.1638,0,0,0,0,0,0,0,0,0,0,0,0,0,0.1425,0.1375,0.1453,0.1494,0.1499,0.153,0.1532,0.1533,0.1592,0.1593,0.1594,0.1595,0.1636,0.1637,0.1638,0.1626,0,0,0.1641,0.1641,0,0,0,0,0,0,0,0,0.1422,0.1428,0.1487,0.1491,0.1496,0.1553,0.152,0.1563,0.1592,0.1556,0.1594,0.1595,0.1605,0.1609,0.1621,0.1628,0.163,0.1641,0.1641,0.1642,0.1642,0,0,0,0,0,0,0,0.1419,0.1425,0.1484,0.1488,0.1494,0.1515,0.1523,0.1528,0.1574,0.1559,0.1564,0.1573,0.1607,0.162,0.1623,0.1631,0.1641,0.1642,0.1642,0.1643,0.1735,0.1737,0,0,0,0,0,0,0.1408,0.1422,0.1481,0.1486,0.1461,0.1515,0.1524,0.1534,0.1575,0.1582,0.1572,0.1575,0.1618,0.1622,0.1624,0.1695,0.1642,0.1643,0.1643,0.1733,0.1735,0.1738,0,0,0,0,0,0,0.1406,0.1412,0.1478,0.1456,0.1466,0.1516,0.1526,0.1535,0.1581,0.1585,0.1592,0.1613,0.1619,0.1623,0.1664,0.1694,0.1643,0.1644,0.1731,0.1734,0.1736,0.1783,0,0,0,0,0,0,0.1403,0.1411,0.1431,0.1455,0.1467,0.1521,0.1525,0.1536,0.1583,0.1589,0.1621,0.1624,0.162,0.1663,0.1665,0.1694,0.1645,0.1728,0.1732,0.1736,0.1779,0.1787,0.1794,0,0,0,0,0,0.14,0.1415,0.1431,0.144,0.1487,0.1522,0.1531,0.1568,0.1585,0.1612,0.1637,0.1625,0.1687,0.1665,0.1667,0.1697,0.1727,0.1731,0.1735,0.1776,0.1785,0.1794,0,0,0,0,0,0,0.1382,0.1424,0.1442,0.1467,0.1505,0.1533,0.1561,0.1586,0.1629,0.164,0.1644,0.165,0.17,0.1695,0.167,0.1737,0.1707,0.1712,0.1737,0.1746,0.1754,0.1726,0.1645,0,0,0,0,0,0.1388,0.1424,0.1454,0.1483,0.1498,0.1537,0.1562,0.1589,0.162,0.1642,0.1666,0.169,0.1713,0.1728,0.1747,0.1777,0.1782,0.1801,0.1808,0.1815,0.1796,0.186,0.1871,0.1752,0.1752,0.1752,0,0,0.1392,0.1419,0.1441,0.1485,0.1513,0.1533,0.1555,0.16,0.163,0.1636,0.1693,0.172,0.173,0.1771,0.1792,0.1772,0.1854,0.182,0.1825,0.1803,0.1866,0.1877,0.1887,0.1755,0.1754,0.1754,0,0,0.1393,0.1437,0.1456,0.149,0.1538,0.1559,0.1578,0.1626,0.1666,0.1714,0.1733,0.1773,0.1812,0.1824,0.1831,0.1889,0.1895,0.1914,0.1923,0.1987,0.1996,0.2005,0.203,0.2041,0.1913,0.1913,0.1913,0,0.1389,0.1418,0.1468,0.1487,0.1516,0.1569,0.1587,0.1629,0.1692,0.1725,0.174,0.1815,0.1827,0.1864,0.1889,0.1902,0.1937,0.1886,0.1995,0.2004,0.2012,0.2035,0.2046,0.1916,0.1916,0.1915,0.1915,0,0.1393,0.1426,0.1441,0.1483,0.1523,0.1555,0.1608,0.1664,0.1715,0.1752,0.1826,0.1853,0.1896,0.1916,0.1915,0.1984,0.1991,0.2002,0.1967,0.2026,0.2048,0.2058,0.192,0.1919,0.1918,0.1918,0,0,0.1341,0.1424,0.1431,0.1457,0.1528,0.1555,0.1617,0.1679,0.1724,0.1795,0.1858,0.1896,0.1932,0.1942,0.1966,0.2009,0.2096,0.2034,0.2037,0.2048,0.2231,0.2112,0.2112,0.215,0.2152,0.2154,0.2224,0,0.1321,0.1354,0.141,0.1452,0.1469,0.1553,0.1602,0.1676,0.1748,0.1829,0.1881,0.1953,0.1938,0.1986,0.2023,0.2091,0.2127,0.2075,0.218,0.2181,0.206,0.2121,0.2161,0.2231,0.2234,0.2235,0.2237,0,0.1293,0.1321,0.1357,0.144,0.1456,0.15,0.1602,0.1659,0.1778,0.1839,0.1916,0.1983,0.2058,0.2056,0.2154,0.2136,0.218,0.2214,0.2219,0.2089,0.2081,0.2161,0.2255,0.2254,0.2253,0.2251,0.225,0,0.1218,0.1286,0.1319,0.1348,0.1439,0.1492,0.1557,0.1666,0.1742,0.1876,0.1949,0.2033,0.2122,0.2178,0.2252,0.2233,0.2367,0.2348,0.2266,0.2257,0.2321,0.2311,0.2416,0.2416,0.2416,0.2416,0.2415,0,0.1161,0.1183,0.1296,0.1309,0.1361,0.1456,0.154,0.1614,0.176,0.1847,0.1961,0.204,0.2172,0.227,0.2292,0.2308,0.2402,0.2261,0.2271,0.234,0.2332,0.2329,0.2318,0.2418,0.2418,0.2417,0.2417,0,0.1061,0.1131,0.1169,0.1282,0.1326,0.1369,0.1542,0.16,0.1742,0.1872,0.1937,0.2106,0.2215,0.2309,0.2427,0.2361,0.2388,0.2376,0.2438,0.2453,0.2217,0.2208,0.2258,0.2254,0.2251,0.2249,0.2247,0,0.1007,0.1019,0.1144,0.1175,0.1231,0.1331,0.1399,0.157,0.1646,0.1884,0.1929,0.2124,0.2213,0.2256,0.2358,0.239,0.2371,0.2356,0.2261,0.2197,0.2204,0.2199,0.2194,0.2242,0.2241,0.224,0.224,0,0.0899,0.0962,0.1007,0.1075,0.1149,0.1233,0.1355,0.1416,0.1618,0.1768,0.189,0.1984,0.2108,0.2182,0.225,0.2262,0.2341,0.2324,0.2328,0.2239,0.2179,0.2187,0.2186,0.2229,0.2231,0.2232,0.2232,0,0.0829,0.0839,0.0916,0.0975,0.1053,0.1113,0.12,0.1317,0.1431,0.1696,0.1738,0.1924,0.2092,0.212,0.2171,0.2188,0.2138,0.2047,0.2065,0.2077,0.1989,0.1884,0.1851,0,0,0,0,0,0.0743,0.0755,0.0808,0.0862,0.094,0.0995,0.1155,0.1255,0.1465,0.1502,0.1625,0.1731,0.1846,0.1938,0.1919,0.2082,0.2137,0.2049,0.2037,0.2171,0.2183,0.2097,0,0,0,0,0,0,0.0684,0.0711,0.0769,0.0773,0.0791,0.0867,0.0972,0.1117,0.1153,0.1369,0.1435,0.1599,0.1724,0.1825,0.187,0.1901,0.1854,0.2169,0.2164,0.2165,0.2175,0.2185,0.2101,0,0,0,0,0]},{"header":{"parameterUnit":"m.s-1","parameterCategory":2,"la1":30.2991,"la2":30.254,"lo1":-89.0895,"lo2":-89.0444,"dy":0.0017,"dx":0.0017,"nx":28,"ny":28,"refTime":"2025-09-12T09:00:00:Z","depth":"4","parameterNumber":3,"parameterNumberName":"V-component_of_CURRENTS"},"data":[0,0,0,0,0,0,0,0,0,0,0,0,0,0,0,0,0,0,0,0,0,0,0,0,0,0,0,0,0,0,0,0,0,0,0,0,0,0,0,0,0,0,0,0,0,0,0,0,0,0,0,0,0,0,0,0,0,0,0.0172,0.0172,0,0.0146,0.0146,0.0146,0.0129,0.0129,0.0129,0.0129,0.009,0.0089,0.0088,0,0,0,0,0,0,0,0,0,0,0,0,0,0.0165,0.0166,0.0172,0.0172,0.0172,0.0146,0.0146,0.0145,0.0129,0.0129,0.0129,0.0129,0.009,0.0089,0.0088,0,0,0,0,0,0,0,0,0,0,0,0,0,0.0156,0.0166,0.0172,0.0161,0.016,0.0147,0.0146,0.0145,0.0129,0.0129,0.0129,0.0129,0.0091,0.0089,0.0087,0.0077,0,0,0.0083,0.0082,0,0,0,0,0,0,0,0,0.0156,0.0156,0.0163,0.0162,0.0161,0.0142,0.0129,0.0122,0.0129,0.0139,0.0129,0.0129,0.0107,0.0104,0.0097,0.0075,0.0074,0.0082,0.0081,0.0081,0.008,0,0,0,0,0,0,0,0.0157,0.0157,0.016,0.0163,0.0161,0.0144,0.0143,0.0128,0.0122,0.0138,0.0137,0.0137,0.0106,0.0099,0.0096,0.0073,0.0082,0.0081,0.008,0.0079,0.0045,0.0046,0,0,0,0,0,0,0.0165,0.0157,0.0161,0.016,0.016,0.0144,0.0143,0.0147,0.0122,0.0119,0.0137,0.0136,0.0102,0.0098,0.0095,0.0102,0.0081,0.0079,0.0078,0.0045,0.0046,0.0046,0,0,0,0,0,0,0.0165,0.0166,0.0162,0.0159,0.0157,0.0145,0.0149,0.0146,0.0143,0.0122,0.0118,0.0137,0.0101,0.0097,0.0088,0.01,0.0079,0.0077,0.0045,0.0045,0.0046,0.0103,0,0,0,0,0,0,0.0165,0.0166,0.0172,0.016,0.0158,0.016,0.0149,0.0146,0.0143,0.0142,0.012,0.0116,0.0101,0.0091,0.0087,0.0097,0.0076,0.0045,0.0045,0.0046,0.0101,0.0105,0.0108,0,0,0,0,0,0.0165,0.0175,0.0173,0.0173,0.0167,0.0161,0.0158,0.0148,0.0143,0.0144,0.0131,0.0117,0.0088,0.009,0.0085,0.0095,0.0045,0.0045,0.0046,0.0099,0.0104,0.0108,0,0,0,0,0,0,0.0178,0.0174,0.0171,0.0181,0.0174,0.0159,0.016,0.0152,0.0141,0.0142,0.012,0.0115,0.011,0.0092,0.0094,0.0083,0.0064,0.0063,0.0106,0.0111,0.0114,0.0136,0.0075,0,0,0,0,0,0.0184,0.0189,0.0181,0.0189,0.0188,0.0175,0.0171,0.0164,0.0154,0.0149,0.0134,0.0117,0.0105,0.0101,0.0083,0.0081,0.005,0.0082,0.0085,0.0089,0.0102,0.0063,0.0065,0.0046,0.0046,0.0046,0,0,0.019,0.0189,0.0192,0.0191,0.0186,0.0198,0.0173,0.0172,0.0185,0.0146,0.0156,0.0129,0.0106,0.0103,0.0099,0.0092,0.0075,0.0089,0.0092,0.0103,0.0064,0.0066,0.0067,0.0046,0.0046,0.0046,0,0,0.0214,0.0206,0.0225,0.0223,0.0221,0.0213,0.0216,0.0204,0.0201,0.0199,0.0178,0.0161,0.0139,0.013,0.0122,0.0135,0.0093,0.0123,0.0165,0.0127,0.0129,0.013,0.0083,0.0079,0.0128,0.0128,0.0128,0,0.0231,0.025,0.0228,0.0249,0.0259,0.0226,0.0255,0.0244,0.023,0.0232,0.021,0.0178,0.0157,0.0161,0.0166,0.0146,0.0111,0.0153,0.0133,0.0134,0.0134,0.0086,0.0081,0.0131,0.0131,0.0131,0.013,0,0.0268,0.0289,0.0299,0.0319,0.0322,0.0336,0.0325,0.0324,0.0309,0.0294,0.0283,0.0244,0.0229,0.0212,0.0195,0.019,0.0159,0.0141,0.0126,0.014,0.0087,0.0081,0.0135,0.0134,0.0133,0.0133,0,0,0.0304,0.0327,0.0332,0.0363,0.0364,0.0376,0.0392,0.04,0.0417,0.0375,0.0391,0.0352,0.0316,0.0305,0.027,0.0237,0.0201,0.0195,0.0192,0.0156,0.0107,0.0084,0.0075,0.0176,0.0175,0.0175,0.0066,0,0.0352,0.0409,0.0405,0.0464,0.0497,0.048,0.0502,0.0499,0.0478,0.0476,0.042,0.0413,0.0356,0.0351,0.0306,0.023,0.019,0.0232,0.0093,0.0089,0.0074,0.007,0.0174,0.0061,0.006,0.0059,0.0058,0,0.0396,0.0432,0.0501,0.0554,0.0567,0.0599,0.063,0.0644,0.0619,0.0598,0.0562,0.0512,0.0464,0.0412,0.028,0.0306,0.0218,0.0148,0.0142,0.0102,0.0057,0.0046,0.0047,0.0048,0.0049,0.0049,0.005,0,0.0435,0.0502,0.0563,0.058,0.0628,0.0668,0.0692,0.0687,0.0709,0.068,0.0676,0.0594,0.056,0.0439,0.0287,0.0284,0.0129,0.0105,-0.0,-0.0004,0.0024,0.0024,0.0019,0.0019,0.0019,0.0019,0.002,0,0.0484,0.0534,0.0596,0.0631,0.0718,0.0729,0.0803,0.0803,0.0812,0.083,0.0747,0.073,0.0565,0.0454,0.031,0.0131,0.0141,0.0008,-0.0029,0.0048,0.0052,0.0019,0.002,0.0015,0.0016,0.0017,0.0018,0,0.051,0.0544,0.0628,0.0707,0.0742,0.0803,0.0889,0.0927,0.0921,0.0942,0.0938,0.0833,0.0676,0.0498,0.0294,0.0168,0.0001,-0.0062,0.003,-0.0002,-0.0116,-0.011,-0.019,-0.0192,-0.0193,-0.0194,-0.0195,0,0.0521,0.0571,0.0685,0.074,0.0786,0.088,0.094,0.0979,0.1009,0.0993,0.0996,0.0876,0.0776,0.047,0.0276,-0.0002,-0.004,-0.013,-0.0118,-0.0106,-0.0135,-0.0127,-0.012,-0.0197,-0.0198,-0.0198,-0.0198,0,0.0553,0.0599,0.0663,0.0779,0.0868,0.0968,0.1052,0.1086,0.1109,0.1111,0.1038,0.0886,0.0706,0.0465,0.0253,0.0054,-0.0074,-0.0145,-0.0143,-0.0133,-0.0116,-0.0142,-0.0133,-0.0203,-0.0202,-0.0202,-0.0202,0,0.0575,0.062,0.0707,0.0811,0.0918,0.1016,0.1069,0.1104,0.1141,0.1114,0.1085,0.0896,0.0791,0.0493,0.0293,0.0097,0.0044,-0.002,-0.0026,-0.0024,0.0055,0.0103,0.0054,0,0,0,0,0,0.0597,0.0646,0.073,0.0841,0.0943,0.1017,0.1118,0.1154,0.118,0.1136,0.1115,0.0944,0.0647,0.0519,0.0319,0.0257,0.0006,0.0014,-0.0073,-0.0229,-0.0224,-0.0162,0,0,0,0,0,0,0.0606,0.0687,0.0724,0.0846,0.0921,0.1044,0.1117,0.1142,0.1114,0.1104,0.0951,0.0881,0.0594,0.0758,0.0309,0.025,0.0165,-0.012,-0.0125,-0.0232,-0.0227,-0.0223,-0.0158,0,0,0,0,0]}]]